User: anonymous   Login
Location: Bethera
(33.2010°N, 79.7880°W)
Time: 08:34:38
(UTC-04:00)
Language:

Cosmos 1833 Rocket - Orbit

View from above orbital plane
View from above orbital plane
View from above satellite
View from above satellite

Ground track
Ground track

The orbit data is extracted from the following two-line orbital elements,

1 17590U 87027B   16146.50442523 -.00000117  00000-0 -34675-4 0  9999
2 17590  71.0042 246.3202 0005397 200.0144 160.0769 14.16726136509215
Epoch (UTC): 25 May 2016 12:06:22
Eccentricity: 0.0005397
inclination: 71.0042°
perigee height: 832 km
apogee height: 840 km
right ascension of ascending node: 246.3202°
argument of perigee: 200.0144°
revolutions per day: 14.16726136
mean anomaly at epoch: 160.0769°
orbit number at epoch: 50921

The dashed part of the orbit path shows where the satellite is in the earth's shadow,  

DLR